Main page
METAR-TAF:

METAR-TAF

Airports :

Jammu, India

Jammu Airport

latitude: 32-41-21N, longitude: 74-50-15E, elevation: 314 m

Current weather observation

The report was made 10 hours and 48 minutes ago, at 12:30 UTC
Wind 3 kt from the South
Temperature 33°C
Humidity 63%
Pressure 1001 hPa
Visibility: 6000 m
Scattered clouds at a height of 2500 ft

METAR: VIJU 231230Z 19003KT 6000 SCT025 33/25 Q1001 NOSIG

Time: 04:48 (23:18 UTC)


TAF: missing

Weather observations and forecasts of more than 4000 airports (METAR and TAF reports).

The available stations are represented by yellow and red dots on the map.

Hover mouse over dot to see the name of the station.

Then click to see weather observations and forecasts.

To change the map : click on the green buttons with a black cross to zoom in, on the green button with a dash to zoom out, or on the green arrows for adjacent maps.


METAR-TAF: